{"data":{"norad_id":56450,"intl_designator":"2023-064C","name":"STARLINK-5970","alt_names":[],"object_type":"PAYLOAD","status":"ACTIVE","operator":null,"country":"US","launch_date":"2023-05-10","launch_site_code":"AFWTR","launch_vehicle":null,"mission":null,"orbit_class":"UNKNOWN","rcs_meters":null,"size_class":null,"mass_kg":null,"dimensions":null,"purposes":["comms"],"wikipedia_slug":null,"has_3d_model":false,"image_url":null,"decayed_at":null,"tle_current":{"epoch":"2026-09-20T11:40:49.743840Z","epoch_age_seconds":113171,"freshness":"FRESH","line1":"1 56450U 23064C   26263.48668685  .00000343  00000+0  36546-4 0  9992","line2":"2 56450  70.0007  13.3511 0003068 270.2716  89.8091 14.98332544184429","mean_motion":14.98332544,"eccentricity":0.0003068,"inclination_deg":70.0007,"raan_deg":13.3511,"arg_perigee_deg":270.2716,"mean_anomaly_deg":89.8091,"bstar":3.6546e-5,"rev_number":18442,"period_min":96.106835946827,"perigee_km":569.91570708009,"apogee_km":574.18034061072,"semimajor_km":6950.1850238454,"source":"CELESTRAK","updated_at":"2026-09-21T09:00:33.441269Z"}}}